,,Stat6,,Stat2,,Stat8,,Stat9,,Stat10,,Wind1,,Wind1,
time,status,PA1M_AVG,status,PR1M_SUM,status,RH1M_AVG,status,SR1M_AVG,status,TA1M_AVG,status,W1dAve1m,status,W1sAve1m,
2004-09-29, 00:00:00,VALID,917.999,VALID,0,VALID,100,VALID,0.0169808,VALID,19.0097,VALID,7,VALID,0.57848,
2004-09-29, 00:01:00,VALID,917.971,VALID,0,VALID,100,VALID,0.0169808,VALID,18.9933,VALID,10,VALID,0.593568,
2004-09-29, 00:02:00,VALID,917.959,VALID,0,VALID,100,VALID,0,VALID,19.0065,VALID,11,VALID,0.586787,
2004-09-29, 00:03:00,VALID,917.944,VALID,0,VALID,100,VALID,0.0169808,VALID,19.0134,VALID,11,VALID,0.224432,
2004-09-29, 00:04:00,VALID,917.917,VALID,0,VALID,100,VALID,0.0339617,VALID,19.0162,VALID,11,VALID,0.374442,
2004-09-29, 00:05:00,VALID,917.886,VALID,0,VALID,100,VALID,0.0169808,VALID,19.0097,VALID,11,VALID,0.425868,
2004-09-29, 00:06:00,VALID,917.866,VALID,0,VALID,100,VALID,0.0169808,VALID,19.0127,VALID,11,VALID,0.272135,
2004-09-29, 00:07:00,VALID,917.844,VALID,0,VALID,100,VALID,0,VALID,19.0097,VALID,4,VALID,0.410156,
2004-09-29, 00:08:00,VALID,917.835,VALID,0,VALID,100,VALID,0.0339617,VALID,19.0097,VALID,356,VALID,0.22745,
2004-09-29, 00:09:00,VALID,917.809,VALID,0,VALID,100,VALID,0.0169808,VALID,19.006,VALID,354,VALID,0.315358,
2004-09-29, 00:10:00,VALID,917.801,VALID,0,VALID,100,VALID,0,VALID,19.0129,VALID,353,VALID,0.502418,
2004-09-29, 00:11:00,VALID,917.8,VALID,0,VALID,100,VALID,0.0169808,VALID,19.0157,VALID,11,VALID,0.362305,
2004-09-29, 00:12:00,VALID,917.802,VALID,0,VALID,100,VALID,0.0339617,VALID,19.0355,VALID,7,VALID,0.250533,
2004-09-29, 00:13:00,VALID,917.803,VALID,0,VALID,100,VALID,0.0169808,VALID,19.0293,VALID,355,VALID,0.372569,
2004-09-29, 00:14:00,VALID,917.781,VALID,0,VALID,100,VALID,0,VALID,19.0189,VALID,352,VALID,0.0362043,
2004-09-29, 00:15:00,VALID,917.769,VALID,0,VALID,100,VALID,0,VALID,19.0261,VALID,352,VALID,0.00266335,
2004-09-29, 00:16:00,VALID,917.766,VALID,0,VALID,100,VALID,0,VALID,19.0157,VALID,352,VALID,0.0299782,
2004-09-29, 00:17:00,VALID,917.738,VALID,0,VALID,100,VALID,0.0169808,VALID,19.0291,VALID,352,VALID,0.170945,
2004-09-29, 00:18:00,VALID,917.714,VALID,0,VALID,100,VALID,0,VALID,19.042,VALID,355,VALID,0.317264,
2004-09-29, 00:19:00,VALID,917.706,VALID,0,VALID,100,VALID,0.0169808,VALID,19.039,VALID,355,VALID,0.170201,
2004-09-29, 00:20:00,VALID,917.694,VALID,0,VALID,100,VALID,0,VALID,19.0226,VALID,358,VALID,0.264172,
2004-09-29, 00:21:00,VALID,917.698,VALID,0,VALID,100,VALID,0.0169808,VALID,19.0293,VALID,358,VALID,0.40263,
2004-09-29, 00:22:00,VALID,917.704,VALID,0,VALID,100,VALID,0,VALID,19.0129,VALID,9,VALID,0.306597,
2004-09-29, 00:23:00,VALID,917.694,VALID,0,VALID,100,VALID,0,VALID,18.9908,VALID,9,VALID,0,
2004-09-29, 00:24:00,VALID,917.693,VALID,0,VALID,100,VALID,0,VALID,18.9742,VALID,10,VALID,0,
2004-09-29, 00:25:00,VALID,917.692,VALID,0,VALID,100,VALID,0,VALID,18.9451,VALID,14,VALID,0.212426,
2004-09-29, 00:26:00,VALID,917.701,VALID,0,VALID,100,VALID,0,VALID,18.9426,VALID,25,VALID,0.52381,
2004-09-29, 00:27:00,VALID,917.713,VALID,0,VALID,100,VALID,0.0169808,VALID,18.9421,VALID,19,VALID,0.596554,
2004-09-29, 00:28:00,VALID,917.728,VALID,0,VALID,100,VALID,0,VALID,18.9647,VALID,19,VALID,0.625762,
2004-09-29, 00:29:00,VALID,917.75,VALID,0,VALID,100,VALID,0.0169808,VALID,18.9772,VALID,19,VALID,0.404251,
2004-09-29, 00:30:00,VALID,917.77,VALID,0,VALID,100,VALID,0.0169808,VALID,19.0136,VALID,18,VALID,0.305596,
2004-09-29, 00:31:00,VALID,917.776,VALID,0,VALID,100,VALID,0,VALID,19.0365,VALID,19,VALID,0.27934,
2004-09-29, 00:32:00,VALID,917.787,VALID,0,VALID,100,VALID,0,VALID,19.0166,VALID,19,VALID,0.357851,
2004-09-29, 00:33:00,VALID,917.784,VALID,0,VALID,100,VALID,0.0169808,VALID,19.0268,VALID,19,VALID,0.507813,
2004-09-29, 00:34:00,VALID,917.776,VALID,0,VALID,100,VALID,0,VALID,19.0104,VALID,37,VALID,0.706771,
2004-09-29, 00:35:00,VALID,917.776,VALID,0,VALID,100,VALID,0,VALID,19.0166,VALID,40,VALID,0.766927,
2004-09-29, 00:36:00,VALID,917.774,VALID,0,VALID,100,VALID,0,VALID,19.0134,VALID,40,VALID,0.582775,
2004-09-29, 00:37:00,VALID,917.776,VALID,0,VALID,100,VALID,-0.0169808,VALID,19.0201,VALID,30,VALID,0.565705,
2004-09-29, 00:38:00,VALID,917.767,VALID,0,VALID,100,VALID,-0.0169808,VALID,19.0363,VALID,28,VALID,0.626116,
2004-09-29, 00:39:00,VALID,917.747,VALID,0,VALID,100,VALID,-0.0169808,VALID,19.0653,VALID,25,VALID,0.552782,
2004-09-29, 00:40:00,VALID,917.747,VALID,0,VALID,100,VALID,0,VALID,19.0842,VALID,25,VALID,0.675195,
2004-09-29, 00:41:00,VALID,917.725,VALID,0,VALID,100,VALID,0,VALID,19.0713,VALID,25,VALID,0.971289,
2004-09-29, 00:42:00,VALID,917.702,VALID,0,VALID,100,VALID,-0.0169808,VALID,19.0651,VALID,25,VALID,0.943452,
2004-09-29, 00:43:00,VALID,917.7,VALID,0,VALID,100,VALID,0.0169808,VALID,19.0685,VALID,14,VALID,1.04931,
2004-09-29, 00:44:00,VALID,917.679,VALID,0,VALID,100,VALID,0,VALID,19.0683,VALID,6,VALID,1.03837,
2004-09-29, 00:45:00,VALID,917.655,VALID,0,VALID,100,VALID,0,VALID,19.0743,VALID,13,VALID,1.22983,
2004-09-29, 00:46:00,VALID,917.632,VALID,0,VALID,100,VALID,0.0169808,VALID,19.1036,VALID,19,VALID,1.2128,
2004-09-29, 00:47:00,VALID,917.611,VALID,0,VALID,100,VALID,0,VALID,19.12,VALID,17,VALID,1.16574,
2004-09-29, 00:48:00,VALID,917.608,VALID,0,VALID,100,VALID,0,VALID,19.11,VALID,10,VALID,1.00723,
2004-09-29, 00:49:00,VALID,917.602,VALID,0,VALID,100,VALID,0,VALID,19.1234,VALID,8,VALID,0.644271,
2004-09-29, 00:50:00,VALID,917.6,VALID,0,VALID,100,VALID,0,VALID,19.1204,VALID,356,VALID,0.610352,
2004-09-29, 00:51:00,VALID,917.589,VALID,0,VALID,100,VALID,0,VALID,19.0999,VALID,2,VALID,0.688058,
2004-09-29, 00:52:00,VALID,917.559,VALID,0,VALID,100,VALID,0,VALID,19.1232,VALID,18,VALID,0.786776,
2004-09-29, 00:53:00,VALID,917.554,VALID,0,VALID,100,VALID,-0.0169808,VALID,19.1195,VALID,18,VALID,0.855374,
2004-09-29, 00:54:00,VALID,917.543,VALID,0,VALID,100,VALID,0,VALID,19.1423,VALID,23,VALID,0.720052,
2004-09-29, 00:55:00,VALID,917.5,VALID,0,VALID,100,VALID,0,VALID,19.1391,VALID,18,VALID,1.12409,
2004-09-29, 00:56:00,VALID,917.483,VALID,0,VALID,100,VALID,0,VALID,19.1391,VALID,34,VALID,1.27788,
2004-09-29, 00:57:00,VALID,917.478,VALID,0,VALID,100,VALID,0.0339617,VALID,19.1458,VALID,25,VALID,0.878534,
2004-09-29, 00:58:00,VALID,917.472,VALID,0,VALID,100,VALID,0,VALID,19.1393,VALID,345,VALID,0.720424,
2004-09-29, 00:59:00,VALID,917.454,VALID,0,VALID,100,VALID,0.0169808,VALID,19.1525,VALID,360,VALID,0.291606,
2004-09-29, 01:00:00,VALID,917.438,VALID,0,VALID,100,VALID,0,VALID,19.155,VALID,43,VALID,0.541193,
2004-09-29, 01:01:00,VALID,917.43,VALID,0,VALID,100,VALID,0.0169808,VALID,19.1552,VALID,24,VALID,0.56157,
2004-09-29, 01:02:00,VALID,917.432,VALID,0,VALID,100,VALID,0,VALID,19.1783,VALID,21,VALID,0.353125,
2004-09-29, 01:03:00,VALID,917.415,VALID,0,VALID,100,VALID,0,VALID,19.1749,VALID,26,VALID,0.382813,
2004-09-29, 01:04:00,VALID,917.415,VALID,0,VALID,99.9708,VALID,0.0169808,VALID,19.1684,VALID,19,VALID,0.321057,
2004-09-29, 01:05:00,VALID,917.408,VALID,0,VALID,100,VALID,0,VALID,19.1781,VALID,18,VALID,0,
2004-09-29, 01:06:00,VALID,917.389,VALID,0,VALID,100,VALID,0,VALID,19.1746,VALID,18,VALID,0.0929878,
2004-09-29, 01:07:00,VALID,917.389,VALID,0,VALID,99.999,VALID,0,VALID,19.1485,VALID,53,VALID,0.525112,
2004-09-29, 01:08:00,VALID,917.393,VALID,0,VALID,99.9967,VALID,0,VALID,19.1458,VALID,66,VALID,0.24782,
2004-09-29, 01:09:00,VALID,917.396,VALID,0,VALID,100,VALID,-0.0169808,VALID,19.1359,VALID,66,VALID,0.00260417,
2004-09-29, 01:10:00,VALID,917.392,VALID,0,VALID,100,VALID,0.0169808,VALID,19.1294,VALID,66,VALID,0.0830503,
2004-09-29, 01:11:00,VALID,917.399,VALID,0,VALID,100,VALID,0,VALID,19.1423,VALID,66,VALID,0.0453869,
2004-09-29, 01:12:00,VALID,917.392,VALID,0,VALID,100,VALID,-0.0169808,VALID,19.1391,VALID,5,VALID,0.22911,
2004-09-29, 01:13:00,VALID,917.372,VALID,0,VALID,100,VALID,0,VALID,19.1259,VALID,299,VALID,0.18471,
2004-09-29, 01:14:00,VALID,917.357,VALID,0,VALID,100,VALID,0,VALID,19.159,VALID,322,VALID,0.340972,
2004-09-29, 01:15:00,VALID,917.334,VALID,0,VALID,100,VALID,0,VALID,19.1324,VALID,346,VALID,1.00332,
2004-09-29, 01:16:00,VALID,917.322,VALID,0,VALID,100,VALID,0,VALID,19.1453,VALID,330,VALID,1.03416,
2004-09-29, 01:17:00,VALID,917.279,VALID,0,VALID,99.9596,VALID,0,VALID,19.152,VALID,355,VALID,0.630087,
2004-09-29, 01:18:00,VALID,917.25,VALID,0,VALID,99.9507,VALID,0.0169808,VALID,19.1679,VALID,355,VALID,0.49907,
2004-09-29, 01:19:00,VALID,917.225,VALID,0,VALID,99.9845,VALID,-0.0169808,VALID,19.1808,VALID,355,VALID,0.292436,
2004-09-29, 01:20:00,VALID,917.211,VALID,0,VALID,99.9954,VALID,0.0169808,VALID,19.1845,VALID,355,VALID,0.00868056,
2004-09-29, 01:21:00,VALID,917.196,VALID,0,VALID,99.999,VALID,-0.0169808,VALID,19.1878,VALID,356,VALID,0.170573,
2004-09-29, 01:22:00,VALID,917.171,VALID,0,VALID,99.999,VALID,0,VALID,19.1781,VALID,350,VALID,0.721112,
2004-09-29, 01:23:00,VALID,917.171,VALID,0,VALID,99.9532,VALID,0,VALID,19.1451,VALID,349,VALID,0.819425,
2004-09-29, 01:24:00,VALID,917.162,VALID,0,VALID,99.9608,VALID,0.0169808,VALID,19.1682,VALID,349,VALID,0.628452,
2004-09-29, 01:25:00,VALID,917.15,VALID,0,VALID,99.9634,VALID,0.0169808,VALID,19.1682,VALID,329,VALID,0.332217,
2004-09-29, 01:26:00,VALID,917.145,VALID,0,VALID,99.9822,VALID,0,VALID,19.1615,VALID,325,VALID,0.568359,
2004-09-29, 01:27:00,VALID,917.127,VALID,0,VALID,99.9176,VALID,0,VALID,19.1617,VALID,346,VALID,0.480114,
2004-09-29, 01:28:00,VALID,917.1,VALID,0,VALID,99.8413,VALID,0.0169808,VALID,19.1714,VALID,355,VALID,0.431974,
2004-09-29, 01:29:00,VALID,917.085,VALID,0,VALID,99.7904,VALID,0,VALID,19.1744,VALID,353,VALID,0.709162,
2004-09-29, 01:30:00,VALID,917.053,VALID,0,VALID,99.7078,VALID,0,VALID,19.1878,VALID,324,VALID,0.808008,
2004-09-29, 01:31:00,VALID,917.02,VALID,0,VALID,99.6391,VALID,0.0339617,VALID,19.1873,VALID,315,VALID,0.835938,
2004-09-29, 01:32:00,VALID,916.985,VALID,0,VALID,99.7281,VALID,0,VALID,19.2238,VALID,342,VALID,0.274858,
2004-09-29, 01:33:00,VALID,916.937,VALID,0,VALID,99.723,VALID,0.0509425,VALID,19.2134,VALID,339,VALID,0.755078,
2004-09-29, 01:34:00,VALID,916.911,VALID,0,VALID,99.779,VALID,0.0169808,VALID,19.2134,VALID,5,VALID,0.485904,
2004-09-29, 01:35:00,VALID,916.891,VALID,0,VALID,99.7358,VALID,0,VALID,19.191,VALID,330,VALID,0.483373,
2004-09-29, 01:36:00,VALID,916.867,VALID,0,VALID,99.7803,VALID,0,VALID,19.1808,VALID,329,VALID,0.0371094,
2004-09-29, 01:37:00,VALID,916.857,VALID,0,VALID,99.8693,VALID,0.0169808,VALID,19.1545,VALID,329,VALID,0.0272485,
2004-09-29, 01:38:00,VALID,916.84,VALID,0,VALID,99.9906,VALID,0.0169808,VALID,19.1612,VALID,331,VALID,0.226935,
2004-09-29, 01:39:00,VALID,916.815,VALID,0,VALID,100,VALID,0.0169808,VALID,19.1652,VALID,2,VALID,0.461846,
2004-09-29, 01:40:00,VALID,916.796,VALID,0,VALID,100,VALID,0,VALID,19.1359,VALID,342,VALID,0.577398,
2004-09-29, 01:41:00,VALID,916.801,VALID,0,VALID,100,VALID,0,VALID,19.1036,VALID,314,VALID,0.223656,
2004-09-29, 01:42:00,VALID,916.788,VALID,0,VALID,100,VALID,0.0169808,VALID,19.0807,VALID,314,VALID,0.00272529,
2004-09-29, 01:43:00,VALID,916.774,VALID,0,VALID,100,VALID,0.0339617,VALID,19.0673,VALID,314,VALID,0.106136,
2004-09-29, 01:44:00,VALID,916.786,VALID,0,VALID,100,VALID,0.0509425,VALID,19.0614,VALID,314,VALID,0,
2004-09-29, 01:45:00,VALID,916.77,VALID,0,VALID,100,VALID,0.0679233,VALID,19.0482,VALID,314,VALID,0.000363372,
2004-09-29, 01:46:00,VALID,916.75,VALID,0,VALID,100,VALID,0.0339617,VALID,19.0291,VALID,329,VALID,0.292039,
2004-09-29, 01:47:00,VALID,916.741,VALID,0,VALID,100,VALID,0.0169808,VALID,19.0229,VALID,10,VALID,0.474019,
2004-09-29, 01:48:00,VALID,916.726,VALID,0,VALID,100,VALID,0.0339617,VALID,19.0159,VALID,17,VALID,0.71875,
2004-09-29, 01:49:00,VALID,916.742,VALID,0,VALID,100,VALID,0.0509425,VALID,19.0067,VALID,17,VALID,0.8879,
2004-09-29, 01:50:00,VALID,916.719,VALID,0,VALID,100,VALID,0.0169808,VALID,19.0162,VALID,4,VALID,0.679688,
2004-09-29, 01:51:00,VALID,916.707,VALID,0,VALID,100,VALID,0.0509425,VALID,19.0293,VALID,6,VALID,0.405705,
2004-09-29, 01:52:00,VALID,916.693,VALID,0,VALID,100,VALID,0,VALID,19.0229,VALID,6,VALID,0.25051,
2004-09-29, 01:53:00,VALID,916.672,VALID,0,VALID,100,VALID,0.0509425,VALID,19.0355,VALID,5,VALID,0.364211,
2004-09-29, 01:54:00,VALID,916.662,VALID,0,VALID,100,VALID,0.0169808,VALID,19.0194,VALID,354,VALID,0.60625,
2004-09-29, 01:55:00,VALID,916.644,VALID,0,VALID,100,VALID,0.0509425,VALID,19.0355,VALID,1,VALID,0.725781,
2004-09-29, 01:56:00,VALID,916.641,VALID,0,VALID,100,VALID,0.0169808,VALID,19.0586,VALID,8,VALID,0.976385,
2004-09-29, 01:57:00,VALID,916.62,VALID,0,VALID,100,VALID,0.0339617,VALID,19.0514,VALID,13,VALID,1.30569,
2004-09-29, 01:58:00,VALID,916.609,VALID,0,VALID,99.9794,VALID,0.0679233,VALID,19.0738,VALID,20,VALID,1.15807,
2004-09-29, 01:59:00,VALID,916.603,VALID,0,VALID,99.9163,VALID,0.0339617,VALID,19.0934,VALID,19,VALID,1.4201,
2004-09-29, 02:00:00,VALID,916.615,VALID,0,VALID,99.7523,VALID,0.0339617,VALID,19.0999,VALID,20,VALID,1.67913,
2004-09-29, 02:01:00,VALID,916.623,VALID,0,VALID,99.6976,VALID,0.0169808,VALID,19.1029,VALID,9,VALID,1.25533,
2004-09-29, 02:02:00,VALID,916.638,VALID,0,VALID,99.6862,VALID,0.0509425,VALID,19.1158,VALID,4,VALID,0.952237,
2004-09-29, 02:03:00,VALID,916.64,VALID,0,VALID,99.6429,VALID,0.0339617,VALID,19.1128,VALID,355,VALID,0.996366,
2004-09-29, 02:04:00,VALID,916.637,VALID,0,VALID,99.5704,VALID,0.0679233,VALID,19.1066,VALID,346,VALID,0.708705,
2004-09-29, 02:05:00,VALID,916.661,VALID,0,VALID,99.5806,VALID,0.0169808,VALID,19.1128,VALID,321,VALID,0.3125,
2004-09-29, 02:06:00,VALID,916.667,VALID,0,VALID,99.6226,VALID,0.0339617,VALID,19.1259,VALID,237,VALID,0.375182,
2004-09-29, 02:07:00,VALID,916.657,VALID,0,VALID,99.7459,VALID,0.0339617,VALID,19.1259,VALID,236,VALID,0.0407366,
2004-09-29, 02:08:00,VALID,916.661,VALID,0,VALID,99.8578,VALID,0.0169808,VALID,19.1163,VALID,236,VALID,0,
2004-09-29, 02:09:00,VALID,916.652,VALID,0,VALID,99.9593,VALID,0.0339617,VALID,19.1133,VALID,236,VALID,0,
2004-09-29, 02:10:00,VALID,916.657,VALID,0,VALID,100,VALID,0.0169808,VALID,19.0996,VALID,261,VALID,0,
2004-09-29, 02:11:00,VALID,916.653,VALID,0,VALID,100,VALID,0.0509425,VALID,19.0971,VALID,278,VALID,0.166969,
2004-09-29, 02:12:00,VALID,916.655,VALID,0,VALID,100,VALID,0.0169808,VALID,19.0708,VALID,255,VALID,0.411754,
2004-09-29, 02:13:00,VALID,916.657,VALID,0,VALID,100,VALID,0.0169808,VALID,19.0646,VALID,247,VALID,0.103659,
2004-09-29, 02:14:00,VALID,916.645,VALID,0,VALID,100,VALID,0.0169808,VALID,19.0517,VALID,230,VALID,0.459162,
2004-09-29, 02:15:00,VALID,916.641,VALID,0,VALID,100,VALID,0.0339617,VALID,19.0323,VALID,202,VALID,0.190848,
2004-09-29, 02:16:00,VALID,916.648,VALID,0,VALID,100,VALID,0.0169808,VALID,19.0258,VALID,200,VALID,0,
2004-09-29, 02:17:00,VALID,916.637,VALID,0,VALID,100,VALID,0.0169808,VALID,19.0325,VALID,313,VALID,0.247768,
2004-09-29, 02:18:00,VALID,916.629,VALID,0,VALID,100,VALID,0.0339617,VALID,19.045,VALID,355,VALID,0.171684,
2004-09-29, 02:19:00,VALID,916.636,VALID,0,VALID,100,VALID,0.0339617,VALID,19.0425,VALID,353,VALID,0.297828,
2004-09-29, 02:20:00,VALID,916.618,VALID,0,VALID,100,VALID,0.0339617,VALID,19.0129,VALID,354,VALID,0.960938,
2004-09-29, 02:21:00,VALID,916.625,VALID,0,VALID,99.984,VALID,0,VALID,19.0522,VALID,1,VALID,0.791349,
2004-09-29, 02:22:00,VALID,916.64,VALID,0,VALID,99.7688,VALID,0.0339617,VALID,19.074,VALID,358,VALID,0.524962,
2004-09-29, 02:23:00,VALID,916.626,VALID,0,VALID,99.6607,VALID,0,VALID,19.1063,VALID,15,VALID,1.03497,
2004-09-29, 02:24:00,VALID,916.625,VALID,0,VALID,99.4713,VALID,0.0169808,VALID,19.1232,VALID,42,VALID,1.31383,
2004-09-29, 02:25:00,VALID,916.66,VALID,0,VALID,99.3924,VALID,0.0169808,VALID,19.1418,VALID,302,VALID,0.419922,
2004-09-29, 02:26:00,VALID,916.671,VALID,0,VALID,99.3276,VALID,-0.0509425,VALID,19.1363,VALID,240,VALID,0.553993,
2004-09-29, 02:27:00,VALID,916.645,VALID,0,VALID,99.4318,VALID,-0.0849042,VALID,19.1338,VALID,309,VALID,0.185976,
2004-09-29, 02:28:00,VALID,916.64,VALID,0,VALID,99.5743,VALID,-0.101885,VALID,19.1301,VALID,358,VALID,0.0287109,
2004-09-29, 02:29:00,VALID,916.629,VALID,0,VALID,99.2805,VALID,-0.0679233,VALID,19.1182,VALID,347,VALID,0.732515,
2004-09-29, 02:30:00,VALID,916.614,VALID,0,VALID,98.7732,VALID,-0.0679233,VALID,19.1403,VALID,357,VALID,0.917614,
2004-09-29, 02:31:00,VALID,916.596,VALID,0,VALID,98.571,VALID,-0.0849042,VALID,19.1984,VALID,298,VALID,0.164444,
2004-09-29, 02:32:00,VALID,916.572,VALID,0,VALID,98.6574,VALID,-0.0679233,VALID,19.1984,VALID,320,VALID,0.259415,
2004-09-29, 02:33:00,VALID,916.57,VALID,0,VALID,98.8889,VALID,-0.0509425,VALID,19.1885,VALID,241,VALID,0.547619,
2004-09-29, 02:34:00,VALID,916.549,VALID,0,VALID,99.1127,VALID,-0.0849042,VALID,19.1627,VALID,277,VALID,0.240189,
2004-09-29, 02:35:00,VALID,916.539,VALID,0,VALID,99.2525,VALID,-0.0509425,VALID,19.1304,VALID,354,VALID,0.579901,
2004-09-29, 02:36:00,VALID,916.524,VALID,0,VALID,99.353,VALID,-0.101885,VALID,19.1177,VALID,17,VALID,0.194767,
2004-09-29, 02:37:00,VALID,916.516,VALID,0,VALID,99.4751,VALID,-0.0849042,VALID,19.0949,VALID,17,VALID,0.137091,
2004-09-29, 02:38:00,VALID,916.524,VALID,0,VALID,99.6061,VALID,-0.0509425,VALID,19.0882,VALID,21,VALID,0.644531,
2004-09-29, 02:39:00,VALID,916.509,VALID,0,VALID,99.7307,VALID,-0.0849042,VALID,19.0722,VALID,21,VALID,0.261083,
2004-09-29, 02:40:00,VALID,916.509,VALID,0,VALID,99.8133,VALID,-0.0849042,VALID,19.0596,VALID,328,VALID,0.302507,
2004-09-29, 02:41:00,VALID,916.503,VALID,0,VALID,99.8642,VALID,-0.0339617,VALID,19.0328,VALID,45,VALID,0.445508,
2004-09-29, 02:42:00,VALID,916.506,VALID,0,VALID,99.8718,VALID,0.0339617,VALID,19.0132,VALID,29,VALID,0.984375,
2004-09-29, 02:43:00,VALID,916.515,VALID,0,VALID,99.9405,VALID,0,VALID,18.9747,VALID,12,VALID,0.485156,
2004-09-29, 02:44:00,VALID,916.537,VALID,0,VALID,99.9858,VALID,0.0169808,VALID,18.9583,VALID,349,VALID,0.130327,
2004-09-29, 02:45:00,VALID,916.518,VALID,0,VALID,99.9977,VALID,0,VALID,18.9327,VALID,21,VALID,1.14844,
2004-09-29, 02:46:00,VALID,916.535,VALID,0,VALID,100,VALID,0.0169808,VALID,18.8999,VALID,23,VALID,1.83984,
2004-09-29, 02:47:00,VALID,916.541,VALID,0,VALID,100,VALID,0.0169808,VALID,18.8942,VALID,25,VALID,1.19331,
2004-09-29, 02:48:00,VALID,916.549,VALID,0,VALID,100,VALID,0.0169808,VALID,18.8743,VALID,7,VALID,0.660429,
2004-09-29, 02:49:00,VALID,916.554,VALID,0,VALID,100,VALID,0,VALID,18.8743,VALID,6,VALID,0.0472301,
2004-09-29, 02:50:00,VALID,916.564,VALID,0,VALID,100,VALID,0.0339617,VALID,18.8743,VALID,14,VALID,0.275152,
2004-09-29, 02:51:00,VALID,916.56,VALID,0,VALID,100,VALID,0.0169808,VALID,18.8639,VALID,17,VALID,0.49907,
2004-09-29, 02:52:00,VALID,916.551,VALID,0,VALID,100,VALID,0.0169808,VALID,18.8614,VALID,16,VALID,0.836277,
2004-09-29, 02:53:00,VALID,916.563,VALID,0,VALID,100,VALID,0,VALID,18.8391,VALID,10,VALID,0.575462,
2004-09-29, 02:54:00,VALID,916.563,VALID,0,VALID,100,VALID,0,VALID,18.8423,VALID,342,VALID,0.536585,
2004-09-29, 02:55:00,VALID,916.571,VALID,0,VALID,100,VALID,0,VALID,18.8324,VALID,15,VALID,0.507227,
2004-09-29, 02:56:00,VALID,916.561,VALID,0,VALID,100,VALID,0,VALID,18.8391,VALID,61,VALID,0.13529,
2004-09-29, 02:57:00,VALID,916.552,VALID,0,VALID,100,VALID,0,VALID,18.8289,VALID,52,VALID,0.215909,
2004-09-29, 02:58:00,VALID,916.534,VALID,0,VALID,100,VALID,0.0339617,VALID,18.8458,VALID,17,VALID,0.528232,
2004-09-29, 02:59:00,VALID,916.538,VALID,0,VALID,100,VALID,0,VALID,18.8584,VALID,12,VALID,0.997582,
2004-09-29, 03:00:00,VALID,916.515,VALID,0,VALID,100,VALID,0.0339617,VALID,18.855,VALID,13,VALID,1.14222,
2004-09-29, 03:01:00,VALID,916.533,VALID,0,VALID,100,VALID,0,VALID,18.8321,VALID,341,VALID,0.725898,
2004-09-29, 03:02:00,VALID,916.518,VALID,0,VALID,99.9705,VALID,0.0169808,VALID,18.8358,VALID,25,VALID,1.5849,
2004-09-29, 03:03:00,VALID,916.54,VALID,0,VALID,99.9303,VALID,0,VALID,18.8455,VALID,38,VALID,0.783794,
2004-09-29, 03:04:00,VALID,916.549,VALID,0,VALID,99.868,VALID,0.0339617,VALID,18.8584,VALID,22,VALID,1.22017,
2004-09-29, 03:05:00,VALID,916.558,VALID,0,VALID,99.8769,VALID,0,VALID,18.8584,VALID,15,VALID,0.892223,
2004-09-29, 03:06:00,VALID,916.574,VALID,0,VALID,99.7192,VALID,0,VALID,18.8391,VALID,26,VALID,0.911458,
2004-09-29, 03:07:00,VALID,916.586,VALID,0,VALID,99.5921,VALID,0.0339617,VALID,18.8393,VALID,22,VALID,0.968192,
2004-09-29, 03:08:00,VALID,916.597,VALID,0,VALID,99.4878,VALID,0.0169808,VALID,18.8651,VALID,11,VALID,1.00688,
2004-09-29, 03:09:00,VALID,916.583,VALID,0,VALID,99.4217,VALID,0.0339617,VALID,18.891,VALID,10,VALID,1.15829,
2004-09-29, 03:10:00,VALID,916.588,VALID,0,VALID,99.1864,VALID,0.0169808,VALID,18.8969,VALID,348,VALID,1.13548,
2004-09-29, 03:11:00,VALID,916.587,VALID,0,VALID,99.1445,VALID,0.0339617,VALID,18.9163,VALID,14,VALID,0.739062,
2004-09-29, 03:12:00,VALID,916.555,VALID,0,VALID,99.1419,VALID,0,VALID,18.9098,VALID,19,VALID,1.31994,
2004-09-29, 03:13:00,VALID,916.56,VALID,0,VALID,99.2258,VALID,0.0169808,VALID,18.9133,VALID,20,VALID,1.32347,
2004-09-29, 03:14:00,VALID,916.548,VALID,0,VALID,99.2907,VALID,0.0169808,VALID,18.9066,VALID,24,VALID,1.19029,
2004-09-29, 03:15:00,VALID,916.559,VALID,0,VALID,99.4051,VALID,0,VALID,18.8972,VALID,16,VALID,0.755394,
2004-09-29, 03:16:00,VALID,916.543,VALID,0,VALID,99.5031,VALID,0.0169808,VALID,18.9036,VALID,21,VALID,0.964286,
2004-09-29, 03:17:00,VALID,916.533,VALID,0,VALID,99.5616,VALID,0,VALID,18.8778,VALID,19,VALID,0.891387,
2004-09-29, 03:18:00,VALID,916.538,VALID,0,VALID,99.6315,VALID,0,VALID,18.8545,VALID,19,VALID,0.960565,
2004-09-29, 03:19:00,VALID,916.561,VALID,0,VALID,99.7358,VALID,0,VALID,18.8487,VALID,16,VALID,0.462536,
2004-09-29, 03:20:00,VALID,916.554,VALID,0,VALID,99.8057,VALID,0,VALID,18.8462,VALID,18,VALID,1.04415,
2004-09-29, 03:21:00,VALID,916.552,VALID,0,VALID,99.8197,VALID,0,VALID,18.8298,VALID,17,VALID,1.48047,
2004-09-29, 03:22:00,VALID,916.56,VALID,0,VALID,99.8019,VALID,0,VALID,18.7936,VALID,21,VALID,1.17664,
2004-09-29, 03:23:00,VALID,916.567,VALID,0,VALID,99.7587,VALID,0.0169808,VALID,18.7971,VALID,8,VALID,1.64371,
2004-09-29, 03:24:00,VALID,916.576,VALID,0,VALID,99.7103,VALID,0.0169808,VALID,18.8005,VALID,11,VALID,1.16629,
2004-09-29, 03:25:00,VALID,916.595,VALID,0,VALID,99.7218,VALID,0.0169808,VALID,18.807,VALID,12,VALID,0.592685,
2004-09-29, 03:26:00,VALID,916.596,VALID,0,VALID,99.8133,VALID,-0.0169808,VALID,18.8269,VALID,31,VALID,0.18532,
2004-09-29, 03:27:00,VALID,916.598,VALID,0,VALID,99.8616,VALID,0,VALID,18.8165,VALID,17,VALID,0.541921,
2004-09-29, 03:28:00,VALID,916.581,VALID,0,VALID,99.9036,VALID,0,VALID,18.8266,VALID,11,VALID,0.229651,
2004-09-29, 03:29:00,VALID,916.574,VALID,0,VALID,99.9227,VALID,0.0169808,VALID,18.8169,VALID,13,VALID,1.24929,
2004-09-29, 03:30:00,VALID,916.578,VALID,0,VALID,99.8604,VALID,0,VALID,18.8172,VALID,16,VALID,1.15495,
2004-09-29, 03:31:00,VALID,916.569,VALID,0,VALID,99.8032,VALID,-0.0339617,VALID,18.8333,VALID,19,VALID,1.14658,
2004-09-29, 03:32:00,VALID,916.573,VALID,0,VALID,99.7472,VALID,-0.0169808,VALID,18.846,VALID,23,VALID,0.874818,
2004-09-29, 03:33:00,VALID,916.582,VALID,0,VALID,99.7841,VALID,-0.0169808,VALID,18.8681,VALID,23,VALID,0.230655,
2004-09-29, 03:34:00,VALID,916.604,VALID,0,VALID,99.854,VALID,0,VALID,18.8847,VALID,23,VALID,0,
2004-09-29, 03:35:00,VALID,916.59,VALID,0,VALID,99.8413,VALID,0,VALID,18.8919,VALID,23,VALID,0.0699405,
2004-09-29, 03:36:00,VALID,916.586,VALID,0,VALID,99.8502,VALID,0,VALID,18.8617,VALID,23,VALID,0.0933866,
2004-09-29, 03:37:00,VALID,916.584,VALID,0,VALID,99.9087,VALID,-0.0169808,VALID,18.8785,VALID,23,VALID,0.0726563,
2004-09-29, 03:38:00,VALID,916.586,VALID,0,VALID,99.9733,VALID,-0.0169808,VALID,18.8817,VALID,24,VALID,0.102865,
2004-09-29, 03:39:00,VALID,916.59,VALID,0,VALID,100,VALID,0,VALID,18.8972,VALID,21,VALID,0.202009,
2004-09-29, 03:40:00,VALID,916.578,VALID,0,VALID,100,VALID,-0.0169808,VALID,18.9069,VALID,20,VALID,0.268229,
2004-09-29, 03:41:00,VALID,916.572,VALID,0,VALID,100,VALID,-0.0509425,VALID,18.9004,VALID,20,VALID,0.627544,